TimeCDT,TemperatureF,Dew PointF,Humidity,Sea Level PressureIn,VisibilityMPH,Wind Direction,Wind SpeedMPH,Gust SpeedMPH,PrecipitationIn,Events,Conditions,WindDirDegrees,DateUTC
12:15 AM,33.6,25.3,72,30.03,10.0,WNW,10.4,-,N/A,,Scattered Clouds,290,2013-04-20 05:15:00
12:35 AM,33.3,26.1,75,30.04,10.0,WNW,9.2,-,N/A,,Clear,290,2013-04-20 05:35:00
12:55 AM,32.2,27.3,82,30.05,10.0,West,9.2,-,N/A,,Clear,280,2013-04-20 05:55:00
1:15 AM,32.0,26.6,80,30.05,10.0,WNW,8.1,-,N/A,,Clear,290,2013-04-20 06:15:00
1:35 AM,32.0,26.6,80,30.05,10.0,WNW,8.1,-,N/A,,Clear,290,2013-04-20 06:35:00
1:55 AM,31.8,26.6,81,30.05,10.0,WNW,8.1,-,N/A,,Clear,290,2013-04-20 06:55:00
2:15 AM,32.0,26.2,79,30.05,10.0,WNW,8.1,-,N/A,,Clear,290,2013-04-20 07:15:00
2:35 AM,31.3,26.1,81,30.06,10.0,West,8.1,-,N/A,,Clear,280,2013-04-20 07:35:00
2:55 AM,31.1,26.1,82,30.07,10.0,West,8.1,-,N/A,,Clear,280,2013-04-20 07:55:00
3:15 AM,30.9,26.2,83,30.07,10.0,West,8.1,-,N/A,,Clear,280,2013-04-20 08:15:00
3:35 AM,30.9,26.1,82,30.08,10.0,WNW,8.1,-,N/A,,Clear,290,2013-04-20 08:35:00
3:55 AM,30.2,26.6,86,30.09,10.0,West,6.9,-,N/A,,Clear,280,2013-04-20 08:55:00
4:15 AM,30.2,26.1,85,30.10,10.0,West,5.8,-,N/A,,Clear,270,2013-04-20 09:15:00
4:35 AM,29.8,26.2,86,30.11,10.0,West,6.9,-,N/A,,Clear,270,2013-04-20 09:35:00
4:55 AM,29.7,26.2,87,30.11,10.0,West,6.9,-,N/A,,Clear,270,2013-04-20 09:55:00
5:15 AM,29.5,26.2,88,30.12,10.0,West,4.6,-,N/A,,Clear,280,2013-04-20 10:15:00
5:35 AM,28.9,26.4,90,30.13,10.0,West,5.8,-,N/A,,Clear,270,2013-04-20 10:35:00
5:55 AM,28.9,26.2,90,30.14,10.0,West,4.6,-,N/A,,Clear,270,2013-04-20 10:55:00
6:15 AM,28.8,26.2,90,30.14,10.0,West,4.6,-,N/A,,Clear,280,2013-04-20 11:15:00
6:35 AM,29.1,26.2,89,30.15,10.0,WNW,4.6,-,N/A,,Clear,290,2013-04-20 11:35:00
6:55 AM,30.2,26.6,86,30.16,10.0,Calm,Calm,-,N/A,,Clear,0,2013-04-20 11:55:00
7:15 AM,30.7,27.9,89,30.17,10.0,WNW,4.6,-,N/A,,Clear,300,2013-04-20 12:15:00
7:35 AM,31.8,28.0,86,30.19,10.0,West,4.6,-,N/A,,Clear,280,2013-04-20 12:35:00
7:55 AM,32.2,28.2,85,30.20,10.0,West,6.9,-,N/A,,Clear,280,2013-04-20 12:55:00
8:15 AM,32.9,28.2,83,30.21,10.0,WNW,6.9,-,N/A,,Clear,290,2013-04-20 13:15:00
8:35 AM,33.8,28.6,81,30.22,10.0,West,6.9,-,N/A,,Clear,270,2013-04-20 13:35:00
8:55 AM,34.9,29.3,80,30.23,10.0,WNW,6.9,-,N/A,,Clear,300,2013-04-20 13:55:00
9:15 AM,35.6,29.5,78,30.24,10.0,West,4.6,-,N/A,,Clear,280,2013-04-20 14:15:00
9:35 AM,36.3,29.3,76,30.25,10.0,West,3.5,-,N/A,,Clear,280,2013-04-20 14:35:00
9:55 AM,37.2,30.2,76,30.26,10.0,West,3.5,-,N/A,,Clear,280,2013-04-20 14:55:00
10:15 AM,38.5,30.2,72,30.27,10.0,SW,3.5,-,N/A,,Scattered Clouds,230,2013-04-20 15:15:00
10:35 AM,39.7,30.2,69,30.27,10.0,WSW,5.8,-,N/A,,Mostly Cloudy,240,2013-04-20 15:35:00
10:55 AM,41.0,28.4,61,30.27,10.0,SW,4.6,-,N/A,,Scattered Clouds,230,2013-04-20 15:55:00
11:15 AM,39.6,27.7,62,30.28,10.0,WNW,8.1,-,N/A,,Overcast,290,2013-04-20 16:15:00
11:35 AM,41.0,27.3,58,30.28,10.0,West,5.8,-,N/A,,Mostly Cloudy,280,2013-04-20 16:35:00
11:55 AM,42.8,27.7,55,30.28,10.0,West,5.8,-,N/A,,Scattered Clouds,260,2013-04-20 16:55:00
12:15 PM,42.3,27.0,55,30.28,10.0,West,8.1,-,N/A,,Mostly Cloudy,280,2013-04-20 17:15:00
12:35 PM,43.5,28.2,55,30.27,10.0,NW,3.5,-,N/A,,Mostly Cloudy,320,2013-04-20 17:35:00
12:55 PM,44.6,28.4,53,30.28,10.0,Calm,Calm,-,N/A,,Scattered Clouds,0,2013-04-20 17:55:00
1:15 PM,45.1,28.9,53,30.28,10.0,NNW,6.9,-,N/A,,Scattered Clouds,330,2013-04-20 18:15:00
1:35 PM,45.0,27.3,50,30.28,10.0,West,9.2,-,N/A,,Scattered Clouds,260,2013-04-20 18:35:00
1:55 PM,45.0,26.1,48,30.28,10.0,NW,5.8,-,N/A,,Scattered Clouds,320,2013-04-20 18:55:00
2:15 PM,45.5,25.2,45,30.28,10.0,WNW,6.9,10.4,N/A,,Scattered Clouds,290,2013-04-20 19:15:00
2:35 PM,46.9,27.9,48,30.28,10.0,NW,5.8,-,N/A,,Scattered Clouds,310,2013-04-20 19:35:00
2:55 PM,46.2,25.9,45,30.28,10.0,Calm,Calm,-,N/A,,Scattered Clouds,0,2013-04-20 19:55:00
3:15 PM,46.6,27.3,47,30.27,10.0,Calm,Calm,-,N/A,,Scattered Clouds,0,2013-04-20 20:15:00
3:35 PM,47.3,26.8,45,30.27,10.0,NNW,5.8,-,N/A,,Scattered Clouds,330,2013-04-20 20:35:00
3:55 PM,46.4,23.2,40,30.27,10.0,Calm,Calm,-,N/A,,Clear,0,2013-04-20 20:55:00
4:15 PM,47.1,25.3,43,30.27,10.0,West,5.8,-,N/A,,Scattered Clouds,260,2013-04-20 21:15:00
4:35 PM,47.3,24.3,40,30.27,10.0,North,3.5,-,N/A,,Clear,360,2013-04-20 21:35:00
4:55 PM,47.5,24.6,41,30.27,10.0,NNW,5.8,-,N/A,,Clear,340,2013-04-20 21:55:00
5:15 PM,47.5,21.2,35,30.27,10.0,NNE,3.5,-,N/A,,Clear,20,2013-04-20 22:15:00
5:35 PM,47.3,20.7,35,30.27,10.0,Calm,Calm,-,N/A,,Clear,0,2013-04-20 22:35:00
5:55 PM,46.6,18.3,32,30.27,10.0,Calm,Calm,-,N/A,,Clear,0,2013-04-20 22:55:00
6:15 PM,46.6,19.0,33,30.27,10.0,Calm,Calm,-,N/A,,Clear,0,2013-04-20 23:15:00
6:35 PM,46.4,19.6,34,30.28,10.0,Calm,Calm,-,N/A,,Clear,0,2013-04-20 23:35:00
6:55 PM,45.7,20.1,36,30.28,10.0,Calm,Calm,-,N/A,,Clear,0,2013-04-20 23:55:00
7:15 PM,45.1,25.2,46,30.28,10.0,Calm,Calm,-,N/A,,Clear,0,2013-04-21 00:15:00
7:35 PM,44.1,25.9,49,30.30,10.0,Calm,Calm,-,N/A,,Clear,0,2013-04-21 00:35:00
7:55 PM,43.3,24.8,48,30.30,10.0,Calm,Calm,-,N/A,,Clear,0,2013-04-21 00:55:00
8:15 PM,42.3,25.5,52,30.31,10.0,Calm,Calm,-,N/A,,Clear,0,2013-04-21 01:15:00
8:35 PM,40.5,29.8,66,30.32,10.0,Calm,Calm,-,N/A,,Clear,0,2013-04-21 01:35:00
8:55 PM,41.0,25.9,55,30.33,10.0,East,3.5,-,N/A,,Clear,90,2013-04-21 01:55:00
9:15 PM,40.1,28.0,62,30.34,10.0,East,3.5,-,N/A,,Clear,80,2013-04-21 02:15:00
9:35 PM,40.1,28.4,63,30.34,10.0,East,5.8,-,N/A,,Clear,90,2013-04-21 02:35:00
9:55 PM,39.6,29.3,67,30.35,10.0,East,3.5,-,N/A,,Clear,90,2013-04-21 02:55:00
10:15 PM,38.7,29.8,71,30.34,10.0,East,4.6,-,N/A,,Clear,100,2013-04-21 03:15:00
10:35 PM,38.8,30.0,71,30.34,10.0,East,4.6,-,N/A,,Scattered Clouds,90,2013-04-21 03:35:00
10:55 PM,38.5,29.3,70,30.35,10.0,East,5.8,-,N/A,,Scattered Clouds,100,2013-04-21 03:55:00
11:15 PM,38.3,29.1,70,30.35,10.0,East,5.8,-,N/A,,Clear,100,2013-04-21 04:15:00
11:35 PM,37.8,29.1,71,30.35,10.0,East,5.8,-,N/A,,Clear,100,2013-04-21 04:35:00
11:55 PM,37.8,29.3,72,30.36,10.0,ESE,4.6,-,N/A,,Clear,110,2013-04-21 04:55:00